sat.trackr.live / text

‹ back to catalog

STARLINK-31963

NORAD 59893 · 2024-100J

PAYLOAD ACTIVE UNKNOWN

§ Identity

Operator
Country
US
Launch date
2024-05-28
Launch site
AFETR
Launch vehicle
Mass (kg)
RCS (m²)

Purposes: comms

External: N2YO · Heavens-Above · Gunter

§ Orbital elements

Epoch: 2026-05-25T02:46:09.778080Z

Period
94.27 min
Inclination
42.9984°
Eccentricity
0.0000687
Mean motion
15.27579350 rev/d
Perigee alt
482.6 km
Apogee alt
483.5 km
Semi-major
6,861.2 km
B*
1.0408e-4
RAAN
53.9195°
Arg perigee
231.2526°
Mean anomaly
128.8265°
Rev number
11,284

§ Raw data

STARLINK-319631 59893U 24100J   26145.11539095  .00002603  00000+0  10408-3 0  99982 59893  42.9984  53.9195 0000687 231.2526 128.8265 15.27579350112848

JSON: /api/v1/satellites/59893 · /tle

For live sub-satellite position, see the globe view (requires WebGL).

§ Visibility from observer

Set your observer location to see the next 7 days of passes ≥ 10°. The values pass through the URL so the page stays shareable.

No JS? Fill the form by hand. The geolocation button needs JavaScript.